Location: Saint André
(43.5594°N, 1.3519°W)
Time: 02:38:53
(UTC+00:00)

ISS - Visible Passes

Search period start: 18 February 2026 00:00
Search period end: 28 February 2026 00:00
Orbit: 413 x 428 km, 51.6° (Epoch: 17 February)

Date Brightness Start Highest point End Pass type
(mag) Time Alt. Az. Time Alt. Az. Time Alt. Az.
18 Feb -3.2 05:27:27 40° NW 05:27:47 41° NNW 05:30:59 10° NE visible
19 Feb -1.7 04:42:15 26° NE 04:42:15 26° NE 04:43:53 10° NE visible
19 Feb -2.1 06:15:15 10° WNW 06:17:53 22° N 06:20:34 10° NE visible
20 Feb -2.3 05:29:58 24° NNW 05:30:32 25° NNW 05:33:24 10° NE visible
21 Feb -1.6 04:44:38 22° NNE 04:44:38 22° NNE 04:46:15 10° NE visible
21 Feb -1.8 06:18:13 10° NW 06:20:46 20° N 06:23:19 10° NE visible
22 Feb -1.9 05:32:14 17° NNW 05:33:22 20° N 05:35:57 10° NE visible
23 Feb -1.6 04:46:50 20° NNE 04:46:50 20° NNE 04:48:39 10° NE visible
23 Feb -1.9 06:20:48 10° NW 06:23:35 23° NNE 06:26:20 10° ENE visible
24 Feb -0.3 04:01:24 10° NE 04:01:24 10° NE 04:01:24 10° NE visible
24 Feb -1.8 05:34:22 14° NW 05:36:10 21° N 05:38:47 10° ENE visible
25 Feb -1.6 04:48:56 20° N 04:48:56 20° N 04:51:17 10° NE visible
26 Feb -0.5 04:03:30 12° NE 04:03:30 12° NE 04:03:51 10° NE visible
26 Feb -2.1 05:36:28 14° NW 05:38:50 28° NNE 05:41:46 10° ENE visible
27 Feb -1.9 04:51:03 23° N 04:51:24 23° NNE 04:54:10 10° ENE visible
